FW9613 Weather Reports


Display with metric or nautical units.
time (UTC)temp
F
wind
direction
speed
MPH
gust
MPH
rain 1hr
in
rain 24hr
in
rain mn
in
humidity
%
barometer
mb
20260510143049 61 19 10.0 15.0 0.00 0.00 0.00 55 1019.6
20260510141551 61 61 6.0 12.0 0.00 0.00 0.00 55 1019.2
20260510140055 61 30 6.0 16.0 0.00 0.00 0.00 56 1018.8
20260510134552 61 30 5.0 13.0 0.00 0.00 0.00 58 1018.3
20260510133050 60 28 8.0 15.0 0.00 0.00 0.00 62 1018.5
20260510131552 60 76 7.0 15.0 0.00 0.00 0.00 67 1018.2
20260510130052 59 30 8.0 15.0 0.00 0.00 0.00 70 1017.9
20260510124547 58 58 5.0 15.0 0.00 0.00 0.00 75 1017.7
20260510123048 58 5 5.0 10.0 0.00 0.00 0.00 79 1017.6
20260510121551 58 48 5.0 10.0 0.00 0.00 0.00 82 1017.6
20260510120049 58 19 6.0 11.0 0.00 0.00 0.00 82 1017.1
20260510114554 58 344 5.0 10.0 0.00 0.00 0.00 82 1016.6
20260510113049 58 5 4.0 10.0 0.00 0.00 0.00 82 1016.5
20260510111607 58 36 6.0 11.0 0.00 0.00 0.00 82 1016.2
20260510110051 58 14 6.0 12.0 0.00 0.00 0.00 83 1016.4
20260510104553 58 352 4.0 6.0 0.00 0.00 0.00 84 1016.3
20260510103053 58 17 3.0 5.0 0.00 0.00 0.00 83 1015.9
20260510101552 58 59 1.0 4.0 0.00 0.00 0.00 82 1015.6
20260510100057 59 32 2.0 5.0 0.00 0.00 0.00 82 1015.5
20260510094555 59 344 2.0 5.0 0.00 0.00 0.00 81 1015.2
20260510093109 59 42 1.0 4.0 0.00 0.00 0.00 81 1015.0
20260510091553 60 55 1.0 4.0 0.00 0.00 0.00 80 1014.9
20260510090107 60 73 2.0 5.0 0.00 0.00 0.00 79 1014.8
20260510084554 60 30 2.0 4.0 0.00 0.01 0.00 77 1014.4
20260510083109 61 13 1.0 4.0 0.00 0.01 0.00 75 1014.3
20260510081608 61 13 1.0 4.0 0.00 0.01 0.00 74 1014.2
20260510080055 62 11 3.0 6.0 0.00 0.01 0.00 72 1014.0
20260510074549 62 59 1.0 4.0 0.00 0.01 0.00 71 1013.9
20260510073053 63 28 1.0 5.0 0.00 0.01 0.00 70 1013.9
20260510071552 63 344 2.0 4.0 0.00 0.01 0.00 68 1014.2
20260510070057 64 163 1.0 4.0 0.00 0.01 0.00 66 1013.9
20260510064601 64 0 0.0 0.0 0.00 0.01 0.00 64 1013.7
20260510063052 64 0 0.0 1.0 0.00 0.01 0.00 63 1013.7
20260510061556 64 0 0.0 3.0 0.00 0.01 0.00 63 1013.7
20260510060052 64 0 0.0 4.0 0.00 0.01 0.00 63 1013.5
20260510054552 65 0 0.0 0.0 0.00 0.01 0.00 62 1013.7
20260510053050 65 279 0.0 2.0 0.00 0.01 0.00 60 1013.7
20260510051549 66 0 0.0 3.0 0.00 0.01 0.00 59 1013.7
20260510050056 66 292 1.0 3.0 0.00 0.01 0.00 58 1013.4
20260510044628 67 0 0.0 2.0 0.00 0.01 0.01 57 1013.2
20260510043054 67 295 2.0 7.0 0.00 0.01 0.01 56 1013.4
20260510041548 67 315 4.0 12.0 0.00 0.01 0.01 54 1013.1
20260510040053 68 279 1.0 5.0 0.00 0.01 0.01 53 1012.3
20260510034551 68 179 3.0 6.0 0.00 0.01 0.01 51 1012.2
20260510033051 69 155 2.0 5.0 0.00 0.01 0.01 50 1012.1
20260510031552 69 175 3.0 5.0 0.00 0.01 0.01 49 1012.0
20260510030050 70 165 2.0 5.0 0.00 0.01 0.01 49 1011.9
20260510024549 71 173 2.0 5.0 0.00 0.18 0.01 49 1011.7
20260510023053 71 186 2.0 5.0 0.00 0.18 0.01 47 1011.4
20260510021550 72 155 2.0 5.0 0.00 0.18 0.01 46 1011.1
20260510020051 73 181 2.0 5.0 0.00 0.18 0.01 44 1010.9
20260510014554 74 149 1.0 5.0 0.00 0.18 0.01 43 1010.7
20260510013052 74 166 1.0 6.0 0.00 0.18 0.01 41 1010.3
20260510011556 75 172 2.0 5.0 0.00 0.18 0.01 41 1010.2
20260510010114 76 174 3.0 6.0 0.00 0.18 0.01 41 1010.0
20260510004554 76 180 3.0 5.0 0.00 0.18 0.01 40 1009.9
20260510003051 77 219 3.0 5.0 0.00 0.18 0.01 39 1009.9
20260510001558 78 198 3.0 7.0 0.00 0.18 0.01 38 1009.8
20260510000052 78 225 3.0 7.0 0.00 0.18 0.01 36 1009.9
20260509234611 79 244 4.0 8.0 0.00 0.18 0.01 34 1009.8
20260509233051 80 259 5.0 9.0 0.00 0.18 0.01 33 1009.7
20260509231551 80 252 6.0 10.0 0.00 0.18 0.01 31 1009.7
20260509230051 81 223 5.0 9.0 0.00 0.18 0.01 32 1009.6
20260509224550 80 244 6.0 10.0 0.00 0.18 0.01 31 1009.7
20260509223056 81 235 6.0 12.0 0.00 0.18 0.01 30 1009.7
20260509221551 81 249 5.0 12.0 0.00 0.18 0.01 30 1009.7
20260509214551 82 346 7.0 12.0 0.00 0.18 0.01 30 1009.6
20260509213053 82 228 4.0 9.0 0.00 0.18 0.01 30 1009.6
20260509211556 82 257 3.0 13.0 0.00 0.18 0.01 30 1009.7
20260509210053 81 235 9.0 17.0 0.00 0.18 0.01 30 1009.9
20260509204550 82 245 6.0 12.0 0.00 0.18 0.01 31 1010.0
20260509203124 82 317 4.0 13.0 0.00 0.18 0.01 32 1010.3
20260509201603 81 242 9.0 15.0 0.00 0.18 0.01 30 1010.4
20260509200101 81 238 10.0 16.0 0.00 0.18 0.01 31 1010.5
20260509194549 81 238 8.0 17.0 0.00 0.18 0.01 31 1010.5
20260509193054 81 239 7.0 17.0 0.00 0.18 0.01 31 1010.6
20260509191607 81 269 9.0 14.0 0.00 0.18 0.01 31 1010.4
20260509190047 80 250 8.0 15.0 0.00 0.18 0.01 30 1010.6
20260509184550 80 241 8.0 17.0 0.00 0.18 0.01 33 1010.6
20260509183053 80 236 6.0 16.0 0.00 0.18 0.01 36 1010.7
20260509181558 80 243 6.0 17.0 0.00 0.18 0.01 36 1010.8
20260509180054 79 231 6.0 13.0 0.00 0.18 0.01 38 1010.9
20260509174548 79 248 9.0 17.0 0.00 0.18 0.01 38 1010.9
20260509173059 79 269 5.0 15.0 0.00 0.18 0.01 38 1011.0
20260509171553 78 304 6.0 12.0 0.00 0.18 0.01 40 1011.1
20260509170056 77 250 6.0 18.0 0.00 0.18 0.01 44 1011.3
20260509164601 76 245 9.0 15.0 0.00 0.18 0.01 45 1011.4
20260509163050 75 271 6.0 16.0 0.00 0.18 0.01 45 1011.4
20260509161556 74 254 5.0 13.0 0.00 0.18 0.01 52 1011.3
20260509160055 73 215 3.0 15.0 0.00 0.18 0.01 53 1011.3
20260509154549 72 287 5.0 12.0 0.00 0.18 0.01 56 1011.3
20260509153054 71 267 4.0 14.0 0.00 0.18 0.01 60 1011.2
20260509151552 70 259 4.0 13.0 0.00 0.18 0.01 63 1011.2
20260509150054 69 223 5.0 15.0 0.00 0.18 0.01 67 1011.1
20260509144551 67 265 7.0 15.0 0.00 0.18 0.01 69 1011.1